Weather History for Berlin, NH

Change the Weather History Date:

Tuesday, December 31, 2002

  Actual Average Record
Temperature  
Mean Temperature 22 °F -  
Max Temperature 30 °F 24 °F 48 °F (2004)
Min Temperature 14 °F 4 °F -11 °F (2005)
Degree Days  
Heating Degree Days 43    
Moisture  
Dew Point 22 °F    
Average Humidity 93    
Maximum Humidity 100    
Minimum Humidity 64    
Precipitation  
Precipitation 0.00 in - - ()
Sea Level Pressure  
Sea Level Pressure 29.99 in    
Wind  
Wind Speed 3 mph (NNW)    
Max Wind Speed 6 mph    
Max Gust Speed -    
Visibility 8 miles    
Events Rain    
Averages and records for this station are not official NWS values.
T = Trace of Precipitation, MM = Missing Value Source: NWS Daily Summary

Daily Weather History Graph

Daily Weather History Graph

Search for Another Location

Airport:

Trip Planner

Search our weather history database for the weather conditions in past years. The results will help you decide how hot, cold, wet, or windy it might be!

Date:

Astronomy

Dec. 31, 2002 Rise Set
Actual Time 7:21 AM EST 4:14 PM EST
Civil Twilight 6:48 AM EST 4:47 PM EST
Nautical Twilight 6:11 AM EST 5:24 PM EST
Astronomical Twilight 5:35 AM EST 5:59 PM EST
Moon 5:02 AM EST (12/31) 2:12 PM EST (12/31)
Length of Visible Light 9h 59m
Length of Day
8h 52m
Waning Crescent, 6% of the Moon is Illuminated
Dec 31
Waning Crescent
Jan 2
New
Jan 10
First Quarter
Jan 18
Full
Jan 25
Last Quarter

Hourly Weather History & Observations

Time (EST) Temp. Windchill Dew Point Humidity Pressure Visibility Wind Dir Wind Speed Gust Speed Precip Events Conditions
12:52 AM 14.0 °F - 3.9 °F 64% 30.25 in 10.0 mi Calm Calm - N/A   Overcast
1:52 AM 16.0 °F 10.4 °F 7.0 °F 68% 30.23 in 10.0 mi North 3.5 mph - N/A   Overcast
2:52 AM 17.1 °F 8.7 °F 8.1 °F 68% 30.21 in 10.0 mi NNW 5.8 mph - N/A   Overcast
3:24 AM 17.6 °F 12.3 °F 8.6 °F 68% 30.13 in 10.0 mi NW 3.5 mph - N/A   Overcast
3:52 AM 17.1 °F 11.7 °F 8.1 °F 68% 30.18 in 10.0 mi NW 3.5 mph - N/A   Overcast
4:52 AM 17.1 °F 11.7 °F 10.0 °F 74% 30.17 in 10.0 mi North 3.5 mph - N/A   Overcast
5:52 AM 18.0 °F 12.7 °F 10.0 °F 71% 30.16 in 10.0 mi North 3.5 mph - N/A   Overcast
6:52 AM 19.0 °F - 12.0 °F 74% 30.15 in 8.0 mi Calm Calm - 0.00 in Rain Light Freezing Rain
7:13 AM 19.4 °F - 15.8 °F 86% 30.08 in 4.0 mi Calm Calm - 0.00 in Rain Light Freezing Rain
7:28 AM 19.4 °F 12.8 °F 17.6 °F 93% 30.08 in 8.0 mi Variable 4.6 mph - N/A Rain Light Freezing Rain
7:52 AM 21.0 °F 14.6 °F 19.9 °F 96% 30.15 in 4.0 mi North 4.6 mph - N/A Rain Light Freezing Rain
8:00 AM 21.2 °F 14.9 °F 21.2 °F 100% 30.08 in 7.0 mi Variable 4.6 mph - N/A Rain Light Freezing Rain
8:28 AM 21.2 °F 16.4 °F 21.2 °F 100% 30.07 in 10.0 mi NW 3.5 mph - N/A   Overcast
8:52 AM 21.9 °F 17.2 °F 21.0 °F 96% 30.14 in 10.0 mi Variable 3.5 mph - N/A   Overcast
9:52 AM 21.9 °F 17.2 °F 21.9 °F 100% 30.10 in 10.0 mi NW 3.5 mph - N/A   Overcast
10:52 AM 23.0 °F 18.4 °F 23.0 °F 100% 30.07 in 10.0 mi NW 3.5 mph - N/A   Overcast
11:52 AM 24.1 °F - 23.0 °F 96% 30.06 in 10.0 mi Calm Calm - N/A   Overcast
12:52 PM 24.1 °F 19.7 °F 24.1 °F 100% 30.02 in 10.0 mi NNW 3.5 mph - N/A   Overcast
1:04 PM 24.8 °F 19.1 °F 24.8 °F 100% 29.95 in 2.5 mi Variable 4.6 mph - N/A   Overcast
1:13 PM 24.8 °F 20.5 °F 24.8 °F 100% 29.95 in 10.0 mi Variable 3.5 mph - N/A   Overcast
1:52 PM 25.0 °F - 25.0 °F 100% 30.00 in 10.0 mi Calm Calm - N/A   Overcast
2:52 PM 25.0 °F - 25.0 °F 100% 29.97 in 10.0 mi Calm Calm - N/A   Overcast
3:52 PM 26.1 °F 21.9 °F 26.1 °F 100% 29.97 in 10.0 mi NW 3.5 mph - N/A   Overcast
4:52 PM 27.0 °F 20.5 °F 27.0 °F 100% 29.94 in 10.0 mi North 5.8 mph - 0.00 in   Overcast
5:10 PM 26.6 °F 21.2 °F 26.6 °F 100% 29.88 in 9.0 mi NW 4.6 mph - N/A   Overcast
5:52 PM 27.0 °F 23.0 °F 27.0 °F 100% 29.93 in 10.0 mi North 3.5 mph - 0.00 in   Overcast
6:52 PM 27.0 °F 21.6 °F 27.0 °F 100% 29.91 in 10.0 mi NNW 4.6 mph - N/A   Overcast
7:52 PM 28.0 °F - 28.0 °F 100% 29.88 in 6.0 mi Calm Calm - 0.00 in   Overcast
8:00 PM 28.4 °F - 28.4 °F 100% 29.82 in 8.0 mi Calm Calm - 0.00 in   Overcast
8:39 PM 28.4 °F 24.6 °F 28.4 °F 100% 29.82 in 6.0 mi North 3.5 mph - 0.00 in Rain Light Freezing Rain
8:52 PM 28.0 °F 24.2 °F 28.0 °F 100% 29.86 in 6.0 mi North 3.5 mph - 0.00 in Rain Light Freezing Rain
9:52 PM 28.9 °F - 28.9 °F 100% 29.83 in 3.0 mi Calm Calm - 0.00 in Rain Light Freezing Rain
10:12 PM 28.4 °F - 28.4 °F 100% 29.80 in 2.5 mi Calm Calm - 0.00 in Rain Light Freezing Rain
10:17 PM 28.4 °F - 28.4 °F 100% 29.80 in 2.0 mi Calm Calm - 0.00 in Rain Light Freezing Rain
10:29 PM 30.2 °F 25.4 °F 30.2 °F 100% 29.81 in 4.0 mi North 4.6 mph - N/A Rain Light Freezing Rain
10:52 PM 30.0 °F - 30.0 °F 100% 29.86 in 5.0 mi Calm Calm - N/A Rain Light Freezing Rain
11:03 PM 30.2 °F 26.7 °F 30.2 °F 100% 29.81 in 4.0 mi SSE 3.5 mph - N/A   Overcast
11:28 PM 30.2 °F - 30.2 °F 100% 29.80 in 3.0 mi Calm Calm - N/A   Overcast
11:52 PM 30.9 °F - 30.9 °F 100% 29.84 in 4.0 mi Calm Calm - N/A   Overcast